Вилькия

Литва     55°02′31″N   23°35′14″E
темп.,
°C
ветер,
м/с
пор.,
м/с
влажн.,
%
обл.,
%
осадки,
мм/ч
давл.,
гПа
погр.,
м
9 мая, вс
вс900:00+2з35943 0.0 101891
03:00+1з22951 0.0 101937
06:00+1юз22975 0.0 102031
09:00+6ююз2474100 0.0 1021432
12:00+11ююз454761 0.0 10211351
15:00+13ю464096 0.0 10201741
18:00+13ююз4852100 0.0 10191612
21:00+10ююв41166100 0.0 1019419
10 мая, пн
пн1000:00+11ю51464100 0.0 1019542
03:00+11ю51468100 0.0 1019477
06:00+9ююв5147960 0.0 1019360
09:00+13ю613685 0.0 1020512
12:00+18ю710554 0.0 1020947
15:00+20ю69505 0.0 10191314
18:00+20ююв610575 0.0 10191184
21:00+15ююв5137299 0.0 1020575
11 мая, вт
вт1100:00+13юв51478100 0.0 1021479
03:00+11юв5158097 0.0 1020429
06:00+10юв5158171 0.0 1020432
09:00+14юв6146726 0.0 1021614
12:00+18юв710519 0.0 10201051
15:00+20юв710465 0.0 10201257
18:00+19юв610520 0.0 10191060
21:00+14юв513655 0.0 1019502
12 мая, ср
ср1200:00+11вюв415780 0.0 1019415
03:00+11вюв414830 0.0 1018382
06:00+10вюв312920 0.0 1018278
09:00+16вюв511740 0.0 1018583
12:00+19вюв610493 0.0 10171273
15:00+20вюв69417 0.0 10161553
18:00+19вюв585369 0.0 10141593
21:00+13вюв3869100 0.0 1014462
13 мая, чт
чт1300:00+9в398699 0.0 1013256
03:00+9вюв389369 0.0 1013207
06:00+7в2595100 0.0 1012121
09:00+12всв357684 0.0 1010494
12:00+13в4576100 0.8 1009806
15:00+13в457863 1.5 1008772
18:00+12юв3580100 0.3 1008327
21:00+11в3685100 0.3 1008124